Regional Weather Roundup
Issued by NWS Goodland, KS

Home | Current Version | Previous Version | Text Only | Print | Product List | Glossary On
Versions: 1 2 3 4 5 6 7 8 9 10 11 12 13 14 15 16 17 18 19 20 21 22 23 24 25 26 27 28 29 30 31 32 33 34 35 36 37 38 39 40 41 42 43 44 45 46 47 48 49 50
000
ASUS43 KGLD 300608
RWRGLD

GOODLAND FORECAST AREA HOURLY WEATHER ROUNDUP
NATIONAL WEATHER SERVICE GOODLAND KS
1200 AM MDT TUE MAY 30 2017

...OFFICIAL OBSERVATIONS...

CITY           SKY/WX    TMP DP  RH WIND       PRES   REMARKS
GOODLAND KS    CLEAR     52  47  83 W9        30.17S
HILL CITY KS   PTCLDY    54  51  90 W6        30.11S
IMPERIAL NEB   CLEAR     57  46  66 W12       30.16R
MCCOOK NEB     PTCLDY    55  44  66 W8        30.14R
AKRON CO       CLEAR     50  45  83 SW9       30.22S
BURLINGTON CO  CLEAR     50  46  86 SW9       30.21S
LIMON CO       CLOUDY    40  40 100 N5        30.26F
$$

...UNOFFICIAL OBSERVATIONS...

CITY           SKY/WX    TMP DP  RH WIND       PRES   REMARKS
LENORA KS        N/A     55  32  41 MISG        N/A
NORTON KS      PTCLDY    50  43  76 S3        30.11S
SHARON SPRINGS   N/A     53  50  89 SW8         N/A
TRENTON NEB      N/A     55  32  41 CALM        N/A
KIT CARSON CO    N/A     46  43  90 CALM        N/A
YUMA CO        FAIR      46  37  71 SW7       30.20S
$$




USA.gov is the U.S. government's official web portal to all federal, state and local government web resources and services.